Location: Passau
(48.5830°N, 13.4830°E)
Time: 19:38:51
(UTC+02:00)

Vanguard 3 - Pass Details

Date: 23 May 2024
Orbit: 509 x 3231 km, 33.3° (Epoch: 15 June)

Event Time Altitude Azimuth Distance (km) Brightness Sun altitude
Rises 17:52:58 0° 190° (S) 3,715 10.6 26.9°
Reaches altitude 10° 17:56:56 10° 164° (SSE) 3,227 10.1 26.2°
Maximum altitude 18:00:45 14° 136° (SE) 3,372 10.0 25.6°
Drops below altitude 10° 18:05:29 10° 110° (ESE) 4,201 10.3 24.8°
Sets 18:12:17 0° 90° (E) 5,886 11.0 23.7°
